| time (UTC) | temp F | wind direction | speed MPH | gust MPH | rain 1hr in | rain 24hr in | rain mn in | humidity % | barometer mb |
| 20260507052129 | 42 | 217 | 2.0 | 3.0 | 0.00 | 0.00 | 0.00 | 93 | 1014.2 |
| 20260507051140 | 40 | 355 | 0.0 | 2.0 | 0.00 | 0.00 | 0.00 | 94 | 1014.1 |
| 20260507050140 | 39 | 355 | 0.0 | 2.0 | 0.00 | 0.00 | 0.00 | 94 | 1014.1 |
| 20260507045132 | 38 | 355 | 0.0 | 1.0 | 0.00 | 0.00 | 0.00 | 95 | 1013.9 |
| 20260507044151 | 36 | 355 | 0.0 | 0.0 | 0.00 | 0.00 | 0.00 | 94 | 1013.9 |
| 20260507043142 | 35 | 355 | 0.0 | 0.0 | 0.00 | 0.00 | 0.00 | 94 | 1013.9 |
| 20260507042128 | 34 | 355 | 0.0 | 0.0 | 0.00 | 0.00 | 0.00 | 94 | 1013.7 |
| 20260507041147 | 34 | 355 | 0.0 | 0.0 | 0.00 | 0.00 | 0.00 | 93 | 1013.8 |
| 20260507040138 | 34 | 355 | 0.0 | 0.0 | 0.00 | 0.00 | 0.00 | 93 | 1013.6 |
| 20260507035130 | 34 | 355 | 0.0 | 0.0 | 0.00 | 0.00 | 0.00 | 93 | 1013.6 |
| 20260507034152 | 33 | 355 | 0.0 | 0.0 | 0.00 | 0.00 | 0.00 | 93 | 1013.5 |
| 20260507033144 | 33 | 355 | 0.0 | 0.0 | 0.00 | 0.00 | 0.00 | 93 | 1013.6 |
| 20260507032135 | 33 | 355 | 0.0 | 0.0 | 0.00 | 0.00 | 0.00 | 92 | 1013.5 |
| 20260507031126 | 33 | 355 | 0.0 | 0.0 | 0.00 | 0.00 | 0.00 | 92 | 1013.5 |
| 20260507030148 | 33 | 355 | 0.0 | 0.0 | 0.00 | 0.00 | 0.00 | 91 | 1013.4 |
| 20260507025205 | 33 | 355 | 0.0 | 0.0 | 0.00 | 0.00 | 0.00 | 91 | 1013.4 |
| 20260507024206 | 33 | 355 | 0.0 | 0.0 | 0.00 | 0.00 | 0.00 | 91 | 1013.4 |
| 20260507023136 | 33 | 355 | 0.0 | 0.0 | 0.00 | 0.00 | 0.00 | 91 | 1013.3 |
| 20260507022128 | 33 | 355 | 0.0 | 0.0 | 0.00 | 0.00 | 0.00 | 91 | 1013.4 |
| 20260507021128 | 33 | 355 | 0.0 | 0.0 | 0.00 | 0.00 | 0.00 | 90 | 1013.3 |
| 20260507020138 | 33 | 355 | 0.0 | 0.0 | 0.00 | 0.00 | 0.00 | 90 | 1013.2 |
| 20260507015155 | 33 | 355 | 0.0 | 0.0 | 0.00 | 0.00 | 0.00 | 90 | 1013.2 |
| 20260507014135 | 33 | 355 | 0.0 | 0.0 | 0.00 | 0.00 | 0.00 | 89 | 1013.1 |
| 20260507013137 | 33 | 355 | 0.0 | 0.0 | 0.00 | 0.00 | 0.00 | 89 | 1013.1 |
| 20260507012128 | 33 | 355 | 0.0 | 0.0 | 0.00 | 0.00 | 0.00 | 88 | 1013.1 |
| 20260507011125 | 33 | 355 | 0.0 | 0.0 | 0.00 | 0.00 | 0.00 | 88 | 1013.1 |
| 20260507010143 | 34 | 355 | 0.0 | 0.0 | 0.00 | 0.00 | 0.00 | 87 | 1013.0 |
| 20260507005135 | 34 | 355 | 0.0 | 0.0 | 0.00 | 0.00 | 0.00 | 87 | 1013.0 |
| 20260507004127 | 34 | 355 | 0.0 | 0.0 | 0.00 | 0.00 | 0.00 | 86 | 1013.0 |
| 20260507003146 | 34 | 355 | 0.0 | 0.0 | 0.00 | 0.00 | 0.00 | 85 | 1012.9 |
| 20260507002131 | 35 | 355 | 0.0 | 0.0 | 0.00 | 0.00 | 0.00 | 85 | 1013.0 |
| 20260507001130 | 35 | 355 | 0.0 | 0.0 | 0.00 | 0.00 | 0.00 | 84 | 1012.9 |
| 20260507000138 | 35 | 355 | 0.0 | 0.0 | 0.00 | 0.00 | 0.00 | 83 | 1012.9 |
| 20260506235130 | 35 | 355 | 0.0 | 0.0 | 0.00 | 0.00 | 0.00 | 82 | 1012.9 |
| 20260506234133 | 35 | 355 | 0.0 | 0.0 | 0.00 | 0.00 | 0.00 | 82 | 1012.8 |
| 20260506233126 | 36 | 355 | 0.0 | 0.0 | 0.00 | 0.00 | 0.00 | 81 | 1012.8 |
| 20260506232146 | 36 | 355 | 0.0 | 2.0 | 0.00 | 0.00 | 0.00 | 81 | 1012.8 |
| 20260506231132 | 36 | 355 | 0.0 | 0.0 | 0.00 | 0.00 | 0.00 | 80 | 1012.8 |
| 20260506230142 | 36 | 355 | 1.0 | 3.0 | 0.00 | 0.00 | 0.00 | 81 | 1012.7 |
| 20260506225146 | 36 | 344 | 2.0 | 3.0 | 0.00 | 0.00 | 0.00 | 80 | 1012.7 |
| 20260506224135 | 36 | 334 | 2.0 | 3.0 | 0.00 | 0.00 | 0.00 | 79 | 1012.7 |
| 20260506223149 | 36 | 342 | 0.0 | 0.0 | 0.00 | 0.00 | 0.00 | 78 | 1012.7 |
| 20260506222131 | 37 | 342 | 0.0 | 0.0 | 0.00 | 0.00 | 0.00 | 77 | 1012.5 |
| 20260506221143 | 37 | 342 | 0.0 | 0.0 | 0.00 | 0.00 | 0.00 | 77 | 1012.6 |
| 20260506220131 | 38 | 342 | 0.0 | 2.0 | 0.00 | 0.00 | 0.00 | 77 | 1012.6 |
| 20260506215153 | 38 | 336 | 1.0 | 3.0 | 0.00 | 0.00 | 0.00 | 77 | 1012.5 |
| 20260506214206 | 38 | 330 | 1.0 | 4.0 | 0.00 | 0.00 | 0.00 | 77 | 1012.4 |
| 20260506213207 | 38 | 333 | 2.0 | 4.0 | 0.00 | 0.00 | 0.00 | 78 | 1012.4 |
| 20260506212135 | 38 | 323 | 2.0 | 3.0 | 0.00 | 0.00 | 0.00 | 78 | 1012.3 |
| 20260506211130 | 38 | 355 | 1.0 | 3.0 | 0.00 | 0.00 | 0.00 | 78 | 1012.1 |
| 20260506210133 | 39 | 341 | 2.0 | 3.0 | 0.00 | 0.00 | 0.00 | 78 | 1012.1 |
| 20260506205127 | 39 | 335 | 1.0 | 3.0 | 0.00 | 0.00 | 0.00 | 78 | 1012.2 |
| 20260506204141 | 39 | 334 | 2.0 | 3.0 | 0.00 | 0.00 | 0.00 | 78 | 1012.1 |
| 20260506203141 | 40 | 331 | 1.0 | 3.0 | 0.00 | 0.00 | 0.00 | 77 | 1012.0 |
| 20260506202134 | 41 | 323 | 1.0 | 3.0 | 0.00 | 0.00 | 0.00 | 76 | 1012.0 |
| 20260506201128 | 41 | 324 | 3.0 | 4.0 | 0.00 | 0.00 | 0.00 | 75 | 1011.9 |
| 20260506200130 | 42 | 321 | 1.0 | 5.0 | 0.00 | 0.00 | 0.00 | 74 | 1011.9 |
| 20260506195143 | 42 | 313 | 3.0 | 5.0 | 0.00 | 0.00 | 0.00 | 73 | 1011.7 |
| 20260506194134 | 43 | 290 | 2.0 | 4.0 | 0.00 | 0.00 | 0.00 | 71 | 1011.7 |
| 20260506193128 | 44 | 321 | 2.0 | 4.0 | 0.00 | 0.00 | 0.00 | 69 | 1011.6 |
| 20260506192143 | 45 | 287 | 1.0 | 4.0 | 0.00 | 0.00 | 0.00 | 66 | 1011.6 |
| 20260506191146 | 46 | 311 | 3.0 | 4.0 | 0.00 | 0.00 | 0.00 | 64 | 1011.4 |
| 20260506190137 | 47 | 298 | 2.0 | 4.0 | 0.00 | 0.00 | 0.00 | 62 | 1011.4 |
| 20260506185129 | 48 | 302 | 3.0 | 5.0 | 0.00 | 0.00 | 0.00 | 61 | 1011.2 |
| 20260506184150 | 49 | 318 | 2.0 | 9.0 | 0.00 | 0.00 | 0.00 | 60 | 1011.2 |
| 20260506183130 | 50 | 298 | 4.0 | 9.0 | 0.00 | 0.00 | 0.00 | 59 | 1011.2 |
| 20260506182145 | 50 | 296 | 4.0 | 11.0 | 0.00 | 0.00 | 0.00 | 62 | 1011.2 |
| 20260506181141 | 51 | 279 | 6.0 | 11.0 | 0.00 | 0.00 | 0.00 | 60 | 1011.1 |
| 20260506180140 | 51 | 290 | 6.0 | 12.0 | 0.00 | 0.00 | 0.00 | 59 | 1011.1 |
| 20260506175154 | 52 | 303 | 7.0 | 11.0 | 0.00 | 0.00 | 0.00 | 60 | 1011.0 |
| 20260506174156 | 51 | 355 | 6.0 | 13.0 | 0.00 | 0.00 | 0.00 | 59 | 1011.0 |
| 20260506173128 | 52 | 284 | 4.0 | 11.0 | 0.00 | 0.00 | 0.00 | 60 | 1011.0 |
| 20260506172132 | 52 | 319 | 9.0 | 13.0 | 0.00 | 0.00 | 0.00 | 60 | 1011.0 |
| 20260506171127 | 52 | 316 | 9.0 | 14.0 | 0.00 | 0.00 | 0.00 | 58 | 1011.0 |
| 20260506170151 | 52 | 295 | 9.0 | 16.0 | 0.00 | 0.00 | 0.00 | 55 | 1011.1 |
| 20260506165144 | 53 | 321 | 8.0 | 13.0 | 0.00 | 0.00 | 0.00 | 53 | 1011.0 |
| 20260506164137 | 53 | 298 | 10.0 | 14.0 | 0.00 | 0.00 | 0.00 | 54 | 1011.0 |
| 20260506163136 | 54 | 293 | 8.0 | 16.0 | 0.00 | 0.00 | 0.00 | 52 | 1011.0 |
| 20260506162151 | 53 | 304 | 9.0 | 14.0 | 0.00 | 0.00 | 0.00 | 52 | 1011.0 |
| 20260506161135 | 54 | 290 | 9.0 | 16.0 | 0.00 | 0.00 | 0.00 | 55 | 1011.0 |
| 20260506160129 | 54 | 313 | 8.0 | 14.0 | 0.00 | 0.00 | 0.00 | 56 | 1010.9 |
| 20260506155153 | 54 | 5 | 7.0 | 11.0 | 0.00 | 0.00 | 0.00 | 59 | 1011.0 |
| 20260506154146 | 54 | 328 | 9.0 | 16.0 | 0.00 | 0.00 | 0.00 | 59 | 1011.0 |
| 20260506153138 | 54 | 304 | 8.0 | 14.0 | 0.00 | 0.00 | 0.00 | 63 | 1011.0 |
| 20260506152203 | 54 | 252 | 10.0 | 14.0 | 0.00 | 0.00 | 0.00 | 60 | 1011.0 |
| 20260506151134 | 54 | 285 | 10.0 | 14.0 | 0.00 | 0.00 | 0.00 | 58 | 1011.1 |
| 20260506150129 | 54 | 286 | 6.0 | 14.0 | 0.00 | 0.00 | 0.00 | 57 | 1011.0 |
| 20260506145147 | 55 | 296 | 9.0 | 15.0 | 0.00 | 0.00 | 0.00 | 57 | 1011.0 |
| 20260506144201 | 55 | 278 | 10.0 | 15.0 | 0.00 | 0.00 | 0.00 | 59 | 1011.2 |
| 20260506143142 | 55 | 277 | 7.0 | 13.0 | 0.00 | 0.00 | 0.00 | 56 | 1011.1 |
| 20260506142134 | 55 | 282 | 9.0 | 12.0 | 0.00 | 0.00 | 0.00 | 51 | 1011.2 |
| 20260506141150 | 55 | 271 | 8.0 | 12.0 | 0.00 | 0.00 | 0.00 | 50 | 1011.1 |
| 20260506140143 | 54 | 292 | 11.0 | 14.0 | 0.00 | 0.00 | 0.00 | 48 | 1011.2 |
| 20260506135135 | 54 | 261 | 10.0 | 15.0 | 0.00 | 0.00 | 0.00 | 50 | 1011.2 |
| 20260506134129 | 54 | 286 | 9.0 | 16.0 | 0.00 | 0.00 | 0.00 | 48 | 1011.2 |
| 20260506133131 | 54 | 286 | 9.0 | 16.0 | 0.00 | 0.00 | 0.00 | 45 | 1011.3 |
| 20260506132206 | 54 | 288 | 11.0 | 15.0 | 0.00 | 0.00 | 0.00 | 52 | 1011.4 |
| 20260506131158 | 54 | 288 | 7.0 | 16.0 | 0.00 | 0.00 | 0.00 | 49 | 1011.3 |
| 20260506130130 | 54 | 267 | 9.0 | 15.0 | 0.00 | 0.00 | 0.00 | 55 | 1011.4 |
| 20260506125128 | 54 | 280 | 10.0 | 15.0 | 0.00 | 0.00 | 0.00 | 51 | 1011.4 |
| 20260506124141 | 54 | 269 | 11.0 | 16.0 | 0.00 | 0.00 | 0.00 | 51 | 1011.5 |
| 20260506123142 | 54 | 291 | 9.0 | 14.0 | 0.00 | 0.00 | 0.00 | 47 | 1011.5 |
| 20260506122143 | 54 | 301 | 10.0 | 15.0 | 0.00 | 0.00 | 0.00 | 46 | 1011.6 |
| 20260506121130 | 54 | 254 | 10.0 | 16.0 | 0.00 | 0.00 | 0.00 | 48 | 1011.7 |
| 20260506120152 | 54 | 238 | 11.0 | 15.0 | 0.00 | 0.00 | 0.00 | 41 | 1011.8 |
| 20260506115143 | 53 | 254 | 13.0 | 16.0 | 0.00 | 0.00 | 0.00 | 43 | 1011.8 |
| 20260506114137 | 53 | 244 | 12.0 | 15.0 | 0.00 | 0.00 | 0.00 | 52 | 1011.8 |
| 20260506113140 | 53 | 250 | 12.0 | 15.0 | 0.00 | 0.00 | 0.00 | 52 | 1011.8 |
| 20260506112131 | 53 | 247 | 12.0 | 15.0 | 0.00 | 0.00 | 0.00 | 52 | 1011.9 |
| 20260506111148 | 53 | 250 | 10.0 | 15.0 | 0.00 | 0.00 | 0.00 | 54 | 1011.9 |
| 20260506110141 | 53 | 244 | 10.0 | 13.0 | 0.00 | 0.00 | 0.00 | 52 | 1011.9 |
| 20260506105134 | 52 | 245 | 10.0 | 13.0 | 0.00 | 0.00 | 0.00 | 50 | 1011.9 |
| 20260506104127 | 52 | 230 | 10.0 | 13.0 | 0.00 | 0.00 | 0.00 | 50 | 1012.0 |
| 20260506103128 | 53 | 288 | 10.0 | 13.0 | 0.00 | 0.00 | 0.00 | 52 | 1011.9 |
| 20260506102134 | 52 | 275 | 9.0 | 13.0 | 0.00 | 0.00 | 0.00 | 50 | 1012.0 |
| 20260506101152 | 52 | 248 | 10.0 | 13.0 | 0.00 | 0.00 | 0.00 | 51 | 1012.0 |
| 20260506100149 | 52 | 256 | 9.0 | 13.0 | 0.00 | 0.00 | 0.00 | 54 | 1012.0 |
| 20260506095200 | 52 | 260 | 10.0 | 13.0 | 0.00 | 0.00 | 0.00 | 53 | 1012.1 |
| 20260506094142 | 52 | 252 | 10.0 | 13.0 | 0.00 | 0.00 | 0.00 | 52 | 1012.1 |
| 20260506093132 | 52 | 278 | 9.0 | 12.0 | 0.00 | 0.00 | 0.00 | 53 | 1012.1 |
| 20260506092154 | 52 | 277 | 8.0 | 12.0 | 0.00 | 0.00 | 0.00 | 55 | 1012.2 |
| 20260506091152 | 52 | 272 | 9.0 | 13.0 | 0.00 | 0.00 | 0.00 | 54 | 1012.2 |
| 20260506090151 | 52 | 248 | 10.0 | 14.0 | 0.00 | 0.00 | 0.00 | 54 | 1012.3 |
| 20260506085140 | 52 | 239 | 9.0 | 13.0 | 0.00 | 0.00 | 0.00 | 54 | 1012.1 |
| 20260506084140 | 52 | 233 | 9.0 | 13.0 | 0.00 | 0.00 | 0.00 | 53 | 1012.2 |
| 20260506083133 | 52 | 227 | 10.0 | 13.0 | 0.00 | 0.00 | 0.00 | 50 | 1012.2 |
| 20260506082152 | 52 | 246 | 5.0 | 14.0 | 0.00 | 0.00 | 0.00 | 51 | 1012.1 |
| 20260506081200 | 53 | 211 | 6.0 | 9.0 | 0.00 | 0.00 | 0.00 | 44 | 1012.1 |
| 20260506080130 | 53 | 225 | 3.0 | 10.0 | 0.00 | 0.00 | 0.00 | 42 | 1012.1 |
| 20260506073126 | 51 | 193 | 4.0 | 7.0 | 0.00 | 0.00 | 0.00 | 45 | 1011.9 |
| 20260506072145 | 51 | 166 | 2.0 | 7.0 | 0.00 | 0.00 | 0.00 | 46 | 1011.9 |
| 20260506071132 | 50 | 178 | 3.0 | 6.0 | 0.00 | 0.00 | 0.00 | 50 | 1011.8 |
| 20260506070148 | 50 | 213 | 4.0 | 10.0 | 0.00 | 0.00 | 0.00 | 47 | 1011.8 |
| 20260506062137 | 49 | 163 | 3.0 | 7.0 | 0.00 | 0.00 | 0.00 | 54 | 1011.8 |
| 20260506061134 | 49 | 178 | 4.0 | 8.0 | 0.00 | 0.00 | 0.00 | 54 | 1011.8 |
| 20260506060210 | 48 | 131 | 2.0 | 6.0 | 0.00 | 0.00 | 0.00 | 59 | 1011.8 |